VPCOH PACV-PANC

Flight info

Callsign VPCOH
Flight time 0h 41m
Altitude 28000
Route EYAKS6 EYAKS JOH PTERS3
Aircraft B738/M-SDE2E3FGHIRWXY/LB1

Departure

Time 2026-04-21 03:42
Airport Merle K (Mudhole) Smith Airport (PACV)

Arrival

Time 2026-04-21 04:23
Airport Ted Stevens Anchorage International Airport (PANC)
Time Latitude Longitude Altitude Speed Heading
2026-04-21 03:15 60.49419 -145.47265 53 ft 0 kts 122°
2026-04-21 03:35 60.49412 -145.47253 53 ft 5 kts 141°
2026-04-21 03:35 60.49376 -145.47259 49 ft 6 kts 217°
2026-04-21 03:35 60.49376 -145.47331 52 ft 6 kts 294°
2026-04-21 03:35 60.49383 -145.47405 50 ft 6 kts 248°
2026-04-21 03:36 60.49351 -145.47446 48 ft 6 kts 205°
2026-04-21 03:36 60.49316 -145.47479 51 ft 5 kts 205°
2026-04-21 03:36 60.49281 -145.47511 47 ft 5 kts 204°
2026-04-21 03:36 60.49247 -145.47542 51 ft 6 kts 204°
2026-04-21 03:37 60.49217 -145.47603 52 ft 7 kts 263°
2026-04-21 03:37 60.49236 -145.47699 51 ft 11 kts 295°
2026-04-21 03:37 60.49287 -145.47919 49 ft 20 kts 295°
2026-04-21 03:37 60.49345 -145.48166 52 ft 19 kts 295°
2026-04-21 03:38 60.49398 -145.48408 52 ft 18 kts 292°
2026-04-21 03:38 60.49448 -145.48642 52 ft 18 kts 296°
2026-04-21 03:38 60.49499 -145.48866 52 ft 17 kts 293°
2026-04-21 03:38 60.49548 -145.49081 52 ft 17 kts 295°
2026-04-21 03:39 60.49594 -145.49291 55 ft 16 kts 293°
2026-04-21 03:39 60.49645 -145.49478 47 ft 15 kts 320°
2026-04-21 03:39 60.49673 -145.49609 49 ft 5 kts 202°
2026-04-21 03:39 60.49648 -145.49570 49 ft 0 kts 116°
2026-04-21 03:40 60.49646 -145.49560 49 ft 5 kts 116°
2026-04-21 03:40 60.49636 -145.49521 50 ft 0 kts 116°
2026-04-21 03:41 60.49636 -145.49520 50 ft 2 kts 116°
2026-04-21 03:41 60.49485 -145.48829 47 ft 106 kts 113°
2026-04-21 03:42 60.49068 -145.46958 328 ft 169 kts 114°
2026-04-21 03:42 60.48606 -145.44831 1887 ft 160 kts 114°
2026-04-21 03:42 60.47907 -145.42867 2695 ft 194 kts 142°
2026-04-21 03:42 60.46592 -145.42258 3438 ft 208 kts 189°
2026-04-21 03:43 60.45384 -145.43844 4421 ft 215 kts 234°
2026-04-21 03:43 60.45006 -145.46758 5535 ft 216 kts 266°
2026-04-21 03:43 60.44866 -145.49797 6696 ft 217 kts 262°
2026-04-21 03:43 60.44681 -145.52846 7821 ft 219 kts 262°
2026-04-21 03:44 60.44482 -145.55929 8931 ft 223 kts 257°
2026-04-21 03:44 60.43784 -145.58765 9894 ft 235 kts 232°
2026-04-21 03:44 60.42563 -145.61295 10254 ft 269 kts 223°
2026-04-21 03:44 60.41070 -145.63947 10560 ft 302 kts 221°
2026-04-21 03:45 60.39531 -145.67152 10827 ft 332 kts 237°
2026-04-21 03:45 60.38601 -145.71412 11611 ft 341 kts 257°
2026-04-21 03:45 60.38542 -145.76200 12683 ft 344 kts 278°
2026-04-21 03:45 60.39034 -145.80947 13700 ft 347 kts 282°
2026-04-21 03:46 60.39608 -145.85729 14564 ft 352 kts 283°
2026-04-21 03:46 60.40201 -145.90545 15530 ft 354 kts 283°
2026-04-21 03:46 60.40791 -145.95382 16480 ft 355 kts 283°
2026-04-21 03:46 60.41375 -146.00277 17366 ft 360 kts 283°
2026-04-21 03:47 60.41953 -146.05222 18273 ft 362 kts 283°
2026-04-21 03:47 60.42530 -146.10218 19054 ft 365 kts 283°
2026-04-21 03:47 60.43097 -146.15185 19814 ft 368 kts 283°
2026-04-21 03:47 60.43672 -146.20252 20544 ft 372 kts 283°
2026-04-21 03:48 60.44251 -146.25376 21275 ft 375 kts 283°
2026-04-21 03:48 60.44833 -146.30558 22009 ft 378 kts 283°
2026-04-21 03:48 60.45418 -146.35773 22701 ft 382 kts 283°
2026-04-21 03:48 60.46008 -146.41056 23361 ft 385 kts 283°
2026-04-21 03:49 60.46601 -146.46380 23912 ft 389 kts 283°
2026-04-21 03:49 60.47196 -146.51749 24430 ft 392 kts 283°
2026-04-21 03:49 60.47812 -146.57161 24949 ft 395 kts 286°
2026-04-21 03:49 60.48902 -146.62289 25455 ft 400 kts 301°
2026-04-21 03:50 60.50497 -146.66843 25999 ft 403 kts 305°
2026-04-21 03:50 60.52229 -146.71444 26475 ft 407 kts 306°
2026-04-21 03:50 60.53942 -146.75960 26965 ft 410 kts 306°
2026-04-21 03:50 60.55671 -146.80562 27614 ft 409 kts 305°
2026-04-21 03:51 60.57383 -146.85177 27882 ft 409 kts 305°
2026-04-21 03:51 60.59083 -146.89807 27883 ft 406 kts 305°
2026-04-21 03:51 60.60765 -146.94413 27892 ft 405 kts 305°
2026-04-21 03:51 60.62447 -146.99032 27889 ft 406 kts 305°
2026-04-21 03:52 60.64126 -147.03654 27893 ft 407 kts 305°
2026-04-21 03:52 60.65799 -147.08312 27889 ft 407 kts 304°
2026-04-21 03:52 60.67457 -147.13003 27897 ft 407 kts 304°
2026-04-21 03:52 60.69106 -147.17699 27892 ft 407 kts 304°
2026-04-21 03:53 60.70756 -147.22412 27894 ft 407 kts 304°
2026-04-21 03:53 60.72400 -147.27113 27891 ft 406 kts 304°
2026-04-21 03:53 60.74040 -147.31808 27894 ft 406 kts 304°
2026-04-21 03:53 60.75659 -147.36444 27896 ft 405 kts 304°
2026-04-21 03:54 60.77312 -147.41190 27894 ft 405 kts 304°
2026-04-21 03:54 60.78924 -147.45823 27896 ft 405 kts 304°
2026-04-21 03:54 60.80554 -147.50514 27894 ft 404 kts 304°
2026-04-21 03:54 60.82184 -147.55217 27894 ft 404 kts 304°
2026-04-21 03:55 60.83809 -147.59915 27889 ft 404 kts 304°
2026-04-21 03:55 60.85437 -147.64631 27889 ft 404 kts 304°
2026-04-21 03:55 60.87061 -147.69347 27893 ft 404 kts 304°
2026-04-21 03:55 60.88681 -147.74057 27894 ft 405 kts 304°
2026-04-21 03:56 60.90309 -147.78804 27888 ft 404 kts 304°
2026-04-21 03:56 60.91926 -147.83525 27890 ft 404 kts 304°
2026-04-21 03:56 60.93541 -147.88251 27894 ft 404 kts 304°
2026-04-21 03:56 60.95158 -147.92995 27910 ft 404 kts 304°
2026-04-21 03:57 60.96771 -147.97734 27892 ft 405 kts 304°
2026-04-21 03:57 60.98389 -148.02500 27893 ft 405 kts 304°
2026-04-21 03:57 61.00003 -148.07262 27894 ft 405 kts 304°
2026-04-21 03:57 61.01592 -148.11959 27897 ft 405 kts 303°
2026-04-21 03:58 61.03203 -148.16731 27876 ft 405 kts 303°
2026-04-21 03:58 61.04819 -148.21530 26996 ft 409 kts 304°
2026-04-21 03:58 61.06425 -148.26308 26343 ft 400 kts 304°
2026-04-21 03:58 61.07998 -148.30995 25647 ft 393 kts 304°
2026-04-21 03:59 61.09543 -148.35609 24943 ft 387 kts 304°
2026-04-21 03:59 61.11061 -148.40148 24289 ft 381 kts 304°
2026-04-21 03:59 61.12560 -148.44646 23621 ft 377 kts 304°
2026-04-21 04:00 61.15011 -148.54062 22119 ft 368 kts 290°
2026-04-21 04:00 61.15860 -148.59022 21485 ft 362 kts 290°
2026-04-21 04:00 61.16692 -148.63917 20828 ft 357 kts 290°
2026-04-21 04:00 61.17507 -148.68677 20192 ft 353 kts 290°
2026-04-21 04:01 61.18328 -148.73425 19556 ft 349 kts 290°
2026-04-21 04:01 61.19148 -148.78144 18948 ft 344 kts 290°
2026-04-21 04:01 61.19957 -148.82793 18324 ft 342 kts 289°
2026-04-21 04:01 61.20763 -148.87432 17652 ft 341 kts 290°
2026-04-21 04:02 61.21563 -148.92044 17123 ft 336 kts 290°
2026-04-21 04:02 61.22356 -148.96613 16530 ft 338 kts 290°
2026-04-21 04:02 61.23160 -149.01268 15916 ft 344 kts 290°
2026-04-21 04:02 61.23968 -149.05947 15284 ft 343 kts 290°
2026-04-21 04:03 61.24609 -149.10612 14804 ft 337 kts 280°
2026-04-21 04:03 61.24897 -149.15398 14438 ft 332 kts 277°
2026-04-21 04:03 61.25147 -149.20222 14068 ft 339 kts 277°
2026-04-21 04:03 61.25410 -149.25111 13698 ft 344 kts 277°
2026-04-21 04:04 61.25690 -149.30045 13263 ft 342 kts 277°
2026-04-21 04:04 61.25977 -149.34923 12882 ft 338 kts 277°
2026-04-21 04:04 61.26263 -149.39758 12508 ft 336 kts 277°
2026-04-21 04:04 61.26545 -149.44551 12152 ft 334 kts 277°
2026-04-21 04:05 61.26822 -149.49342 11770 ft 334 kts 277°
2026-04-21 04:05 61.27097 -149.54132 11416 ft 331 kts 277°
2026-04-21 04:05 61.27365 -149.58818 11050 ft 322 kts 277°
2026-04-21 04:05 61.27624 -149.63385 10697 ft 314 kts 277°
2026-04-21 04:06 61.27875 -149.67837 10364 ft 306 kts 277°
2026-04-21 04:06 61.28318 -149.72101 10025 ft 300 kts 292°
2026-04-21 04:06 61.29322 -149.75806 9943 ft 286 kts 301°
2026-04-21 04:06 61.30350 -149.79231 9931 ft 272 kts 301°
2026-04-21 04:07 61.31327 -149.82512 9837 ft 262 kts 301°
2026-04-21 04:07 61.32274 -149.85727 9556 ft 260 kts 300°
2026-04-21 04:07 61.33217 -149.88949 9207 ft 260 kts 300°
2026-04-21 04:07 61.34156 -149.92166 8889 ft 260 kts 300°
2026-04-21 04:08 61.35265 -149.95065 8534 ft 263 kts 320°
2026-04-21 04:08 61.36892 -149.96790 8227 ft 265 kts 340°
2026-04-21 04:08 61.38665 -149.97812 7937 ft 264 kts 342°
2026-04-21 04:08 61.40411 -149.98928 7700 ft 261 kts 340°
2026-04-21 04:09 61.42127 -150.00062 7469 ft 257 kts 340°
2026-04-21 04:09 61.43841 -150.01199 7130 ft 259 kts 340°
2026-04-21 04:09 61.45576 -150.02350 6755 ft 262 kts 340°
2026-04-21 04:09 61.47320 -150.03524 6448 ft 263 kts 340°
2026-04-21 04:10 61.49053 -150.04690 6178 ft 262 kts 340°
2026-04-21 04:10 61.50787 -150.05851 5880 ft 261 kts 340°
2026-04-21 04:10 61.52505 -150.06992 5743 ft 253 kts 340°
2026-04-21 04:10 61.54127 -150.08099 5652 ft 237 kts 339°
2026-04-21 04:11 61.55646 -150.09181 5538 ft 224 kts 338°
2026-04-21 04:11 61.57051 -150.10214 5448 ft 209 kts 337°
2026-04-21 04:11 61.58259 -150.11623 5326 ft 192 kts 308°
2026-04-21 04:11 61.58750 -150.13998 5208 ft 171 kts 267°
2026-04-21 04:12 61.58383 -150.16184 5124 ft 154 kts 232°
2026-04-21 04:12 61.57574 -150.17429 5060 ft 144 kts 191°
2026-04-21 04:12 61.56576 -150.17196 5026 ft 148 kts 172°
2026-04-21 04:12 61.55539 -150.16776 4913 ft 154 kts 172°
2026-04-21 04:13 61.54837 -150.16498 4831 ft 155 kts 172°
2026-04-21 04:13 61.53441 -150.15946 4656 ft 153 kts 172°
2026-04-21 04:13 61.52399 -150.15532 4549 ft 152 kts 172°
2026-04-21 04:13 61.51368 -150.15122 4428 ft 150 kts 172°
2026-04-21 04:14 61.50346 -150.14713 4318 ft 149 kts 172°
2026-04-21 04:14 61.49662 -150.14439 4233 ft 147 kts 172°
2026-04-21 04:14 61.48661 -150.14036 4117 ft 146 kts 172°
2026-04-21 04:14 61.47671 -150.13641 4021 ft 145 kts 172°
2026-04-21 04:15 61.46686 -150.13244 3911 ft 144 kts 172°
2026-04-21 04:15 61.45379 -150.12748 3700 ft 147 kts 177°
2026-04-21 04:15 61.44696 -150.12633 3537 ft 149 kts 178°
2026-04-21 04:15 61.43663 -150.12480 3342 ft 145 kts 178°
2026-04-21 04:16 61.42613 -150.12317 3322 ft 154 kts 178°
2026-04-21 04:16 61.41559 -150.12144 3277 ft 147 kts 178°
2026-04-21 04:16 61.40561 -150.11976 3275 ft 142 kts 178°
2026-04-21 04:16 61.39579 -150.11808 3293 ft 142 kts 178°
2026-04-21 04:17 61.38582 -150.11637 3293 ft 145 kts 178°
2026-04-21 04:17 61.37578 -150.11303 3290 ft 148 kts 169°
2026-04-21 04:17 61.36579 -150.10758 3297 ft 148 kts 169°
2026-04-21 04:17 61.35608 -150.10213 3287 ft 143 kts 169°
2026-04-21 04:18 61.34665 -150.09683 3286 ft 137 kts 169°
2026-04-21 04:18 61.33760 -150.09176 3281 ft 134 kts 169°
2026-04-21 04:18 61.32868 -150.08677 3186 ft 130 kts 170°
2026-04-21 04:18 61.32017 -150.08200 2986 ft 123 kts 169°
2026-04-21 04:19 61.31207 -150.07746 2806 ft 119 kts 169°
2026-04-21 04:19 61.30403 -150.07297 2634 ft 120 kts 169°
2026-04-21 04:19 61.29600 -150.06848 2467 ft 119 kts 170°
2026-04-21 04:19 61.28806 -150.06403 2277 ft 118 kts 169°
2026-04-21 04:20 61.28019 -150.05962 2109 ft 116 kts 169°
2026-04-21 04:20 61.27239 -150.05525 1923 ft 116 kts 169°
2026-04-21 04:20 61.26462 -150.05090 1765 ft 116 kts 169°
2026-04-21 04:20 61.25687 -150.04656 1597 ft 117 kts 169°
2026-04-21 04:21 61.24889 -150.04208 1418 ft 117 kts 168°
2026-04-21 04:21 61.24104 -150.03769 1218 ft 116 kts 168°
2026-04-21 04:21 61.23331 -150.03336 1014 ft 118 kts 167°
2026-04-21 04:21 61.22526 -150.02884 799 ft 120 kts 167°
2026-04-21 04:22 61.21716 -150.02430 605 ft 120 kts 166°
2026-04-21 04:22 61.20894 -150.01972 420 ft 124 kts 168°
2026-04-21 04:22 61.20051 -150.01496 220 ft 128 kts 167°
2026-04-21 04:22 61.19220 -150.01031 150 ft 115 kts 165°
2026-04-21 04:23 61.18555 -150.00657 129 ft 81 kts 164°
2026-04-21 04:23 61.18126 -150.00419 122 ft 46 kts 165°
2026-04-21 04:23 61.17874 -150.00278 120 ft 35 kts 165°
2026-04-21 04:23 61.17656 -150.00155 123 ft 30 kts 165°
2026-04-21 04:24 61.17460 -150.00043 125 ft 28 kts 165°
2026-04-21 04:24 61.17336 -149.99973 124 ft 16 kts 165°
2026-04-21 04:24 61.17237 -149.99918 124 ft 14 kts 165°
2026-04-21 04:24 61.17144 -149.99853 125 ft 14 kts 144°
2026-04-21 04:25 61.17123 -149.99675 124 ft 15 kts 87°
2026-04-21 04:25 61.17125 -149.99441 122 ft 18 kts 89°
2026-04-21 04:25 61.17125 -149.99154 117 ft 21 kts 90°
2026-04-21 04:25 61.17116 -149.98882 113 ft 19 kts 98°
2026-04-21 04:26 61.17119 -149.98670 115 ft 14 kts 86°
2026-04-21 04:26 61.17117 -149.98470 114 ft 15 kts 88°
2026-04-21 04:26 61.17118 -149.98256 113 ft 15 kts 93°
2026-04-21 04:26 61.17117 -149.98156 114 ft 15 kts 90°
2026-04-21 04:27 61.17117 -149.98025 114 ft 16 kts 90°
2026-04-21 04:27 61.17117 -149.97820 111 ft 18 kts 90°
2026-04-21 04:27 61.17117 -149.97727 109 ft 19 kts 90°
2026-04-21 04:27 61.17117 -149.97586 107 ft 20 kts 90°
2026-04-21 04:28 61.17119 -149.97447 105 ft 22 kts 85°
2026-04-21 04:28 61.17127 -149.97198 100 ft 19 kts 88°
2026-04-21 04:28 61.17131 -149.96927 97 ft 14 kts 92°
2026-04-21 04:28 61.17069 -149.96803 97 ft 15 kts 179°
2026-04-21 04:29 61.16970 -149.96804 99 ft 14 kts 181°
2026-04-21 04:29 61.16896 -149.96941 98 ft 16 kts 249°
2026-04-21 04:29 61.16857 -149.97149 103 ft 15 kts 248°
2026-04-21 04:29 61.16798 -149.97313 109 ft 15 kts 197°
2026-04-21 04:30 61.16702 -149.97365 111 ft 14 kts 208°
2026-04-21 04:30 61.16621 -149.97455 116 ft 12 kts 208°
2026-04-21 04:30 61.16555 -149.97553 119 ft 10 kts 237°
2026-04-21 04:30 61.16554 -149.97713 118 ft 12 kts 261°
2026-04-21 04:31 61.16486 -149.97762 117 ft 6 kts 180°
2026-04-21 04:31 61.16459 -149.97762 117 ft 2 kts 180°
2026-04-21 04:31 61.16437 -149.97763 118 ft 4 kts 180°
2026-04-21 04:31 61.16411 -149.97746 119 ft 4 kts 126°
2026-04-21 04:32 61.16406 -149.97683 121 ft 4 kts 87°
2026-04-21 04:32 61.16410 -149.97669 121 ft 0 kts 58°